Regional Weather Roundup
Issued by NWS

Home | Current Version | Previous Version | Graphics & Text | Print | Product List | Glossary On
Versions: 1 2 3 4 5 6 7 8 9 10 11 12 13 14 15 16 17 18 19 20 21 22 23 24 25 26 27 28 29 30 31 32 33 34 35 36 37 38 39 40 41 42 43 44 45 46 47 48 49 50
000
ASUS43 KFSD 251610
RWRSD

WEATHER ROUNDUP FOR SOUTH DAKOTA
NATIONAL WEATHER SERVICE SIOUX FALLS SD
1100 AM CDT MON SEP 25 2017

NOTE: "FAIR" INDICATES FEW OR NO CLOUDS BELOW 12,000 FEET WITH NO
SIGNIFICANT WEATHER AND/OR OBSTRUCTIONS TO VISIBILITY.


SDZ001>005-009-010-012>017-251700-
NORTHWEST AND NORTH CENTRAL SOUTH DAKOTA

CITY           SKY/WX    TMP DP  RH WIND       PRES   REMARKS
BUFFALO          N/A     44  40  85 CALM      30.09S
FAITH            N/A     46  43  89 NE5       30.15S
MOBRIDGE       CLOUDY    51  46  83 NE12      30.12S
$$

SDZ012>016-024>037-041>051-057-063-072>074-251700-
SOUTHWEST AND SOUTH CENTRAL SOUTH DAKOTA

CITY           SKY/WX    TMP DP  RH WIND       PRES   REMARKS
RAPID CTY ARPT CLOUDY    45  43  93 S6        30.15S
PIERRE         CLOUDY    51  42  71 N12       30.12R
CUSTER         CLOUDY    40  37  89 SW5       30.12S
ELLSWORTH AFB  LGT RAIN  45  45 100 SE8       30.13
PHILIP         CLOUDY    50  44  80 N5        30.14S
PINE RIDGE     CLOUDY    47  42  83 N5        30.15S
SPEARFISH      PTSUNNY   45  41  87 CALM      30.13F
WINNER         CLOUDY    50  47  89 N10       30.12R
$$

SDZ004>011-016>023-039-040-251700-
NORTHEAST SOUTH DAKOTA

CITY           SKY/WX    TMP DP  RH WIND       PRES   REMARKS
ABERDEEN       CLOUDY    51  47  86 N10       30.11S
WATERTOWN      CLOUDY    50  47  89 N14       30.06S
BROOKINGS      CLOUDY    50  48  93 N10       30.07R
SISSETON         N/A     54  48  80 N16       30.07S
$$

SDZ017-020-022-023-036>040-048>070-251700-
SOUTHEAST SOUTH DAKOTA

CITY           SKY/WX    TMP DP  RH WIND       PRES   REMARKS
SIOUX FALLS    CLOUDY    54  52  93 NE10      30.05R
HURON          CLOUDY    51  47  86 N14       30.08F
CHAMBERLAIN    CLOUDY    52  48  87 N10       30.11S
MITCHELL       CLOUDY    52  50  93 NE10      30.08S
YANKTON        CLOUDY    53  51  93 N13       30.05R
$$

ABBREVIATIONS USED IN REMARKS
   TC - TEMPERATURE IN CELSIUS
  WCI - WIND CHILL INDEX
   HX - HEAT INDEX
  VSB - VISIBILITY




USA.gov is the U.S. government's official web portal to all federal, state and local government web resources and services.